Flag for Canada Weather past 2 weeks in Thunder Bay, Ontario, Canada

Now
55 °F

Passing clouds.


Feels Like: 55 °F
Forecast: 53 / 62 °F
Wind: No wind

Location: Thunder Bay

Current Time: Aug 29, 2014 at 12:12:48 AM

Latest Report: Aug 28, 2014 at 11:00 PM


Visibility: 15 mi

Pressure: 30.02 "Hg

Humidity: 88%

Dew point: 52 °F

Location of Thunder BayLocation

Historic Weather in Thunder Bay — Graph

°F

Thunder Bay temperature yesterday

Maximum temperature yesterday: 72 °F (at 3:00 PM)
Minimum temperature yesterday: 41 °F (at 6:00 AM)
Average temperature yesterday: 57 °F

Past Weeks' High & Low Weather Summary

 TemperatureHumidityPressure
High84 °F (Aug 15, 5:00 PM)100% (Aug 14, 3:00 AM)30.19 "Hg (Aug 14, 3:00 AM)
Low41 °F (Aug 14, 6:00 AM)33% (Aug 14, 4:00 PM)29.67 "Hg (Aug 19, 5:00 AM)
Average61 °F84%29.97 "Hg
* Reported Aug 13 11:00 PM — Aug 28 11:00 PM, Thunder Bay, Weather by CustomWeather, © 2014

Note: Actual official high and low records may vary slightly from our data, if they occured in-between our weather recording intervals... More about our weather records

Advertising

Thunder Bay weather history for previous 24 hours

 ConditionsComfort  
Time TempWeatherWind HumidityBarometerVisibility
11:00 PM
Aug 28
55 °FPassing clouds.No wind88%30.02 "Hg15 mi
10:00 PM57 °FPassing clouds.No wind82%30.03 "Hg15 mi
9:00 PM61 °FPartly sunny.8 mph77%30.03 "Hg20 mi
8:00 PM64 °FBroken clouds.5 mph73%30.02 "Hg20 mi
7:00 PM66 °FPartly sunny.8 mph68%30.04 "Hg20 mi
6:00 PM70 °FPartly sunny.10 mph60%30.04 "Hg20 mi
5:00 PM70 °FScattered clouds.10 mph60%30.06 "Hg20 mi
4:00 PM70 °FScattered clouds.13 mph60%30.06 "Hg20 mi
3:00 PM72 °FScattered clouds.10 mph53%30.09 "Hg20 mi
2:00 PM70 °FScattered clouds.12 mph57%30.10 "Hg20 mi
1:00 PM70 °FPassing clouds.10 mph57%30.12 "Hg20 mi
12:00 PM66 °FPassing clouds.7 mph68%30.13 "Hg20 mi
11:00 AM63 °FPassing clouds.3 mph68%30.14 "Hg20 mi
10:00 AM55 °FPassing clouds.No wind82%30.15 "Hg20 mi
9:00 AM48 °FPassing clouds.2 mph94%30.16 "Hg20 mi
8:00 AM43 °FPassing clouds.3 mph100%30.17 "Hg20 mi
7:00 AM41 °FFog.5 mph100%30.17 "Hg20 mi
6:00 AM41 °FClear.3 mph100%30.16 "Hg15 mi
5:00 AM43 °FClear.3 mph100%30.16 "Hg15 mi
4:00 AM45 °FClear.3 mph93%30.16 "Hg15 mi
3:00 AM45 °FPassing clouds.3 mph100%30.17 "Hg15 mi
2:00 AM46 °FClear.3 mph93%30.16 "Hg15 mi
1:00 AM46 °FPassing clouds.3 mph100%30.16 "Hg15 mi
12:00 AM50 °FClear.3 mph94%30.15 "Hg15 mi
Weather by CustomWeather, © 2014

See weather overviewHow to use our weather pages